Wind_Speed
38 38 39 40 41 43 44 44 44 44 43 46 47 47 45 44 44 43 44 44 44 44 44 46 48 50 49 50 53 54 57 59 61 62 63 62 61 59 56 56 55 54 54 52
40 40 41 41 43 43 45 45 45 45 44 45 46 45 44 42 42 42 41 40 41 41 42 44 47 49 49 49 52 52 55 58 61 62 62 62 61 60 57 56 55 53 53 51
41 41 42 43 43 44 44 44 46 46 45 44 46 45 41 40 39 39 39 38 38 40 40 40 43 46 47 48 50 52 54 56 59 62 64 63 61 60 58 55 55 55 53 52
42 42 43 44 43 44 43 43 45 45 45 44 44 47 40 38 38 37 36 36 36 37 39 41 41 44 46 47 49 52 54 55 58 61 63 63 62 60 58 56 54 53 54 52
44 44 44 43 42 43 44 44 44 45 44 44 41 44 40 37 36 34 33 34 35 35 37 39 41 42 45 46 49 51 53 54 56 59 63 63 61 60 59 56 54 54 55 53
44 44 44 43 42 42 44 44 44 44 43 43 38 41 41 36 35 34 33 33 34 35 36 38 39 41 43 44 47 49 51 53 55 57 62 62 62 60 60 57 55 55 56 54
45 44 44 43 42 42 43 44 44 44 43 41 38 39 39 37 36 34 33 33 32 33 34 35 36 38 40 43 45 47 50 51 54 56 59 60 61 60 59 58 56 54 54 54
46 45 44 44 43 43 42 42 42 44 44 43 39 38 36 35 34 33 32 31 31 31 32 33 34 35 37 40 43 46 50 51 53 56 59 60 61 59 58 57 55 53 52 52
47 46 44 44 43 42 41 41 41 43 45 44 40 37 35 33 32 31 30 29 30 30 30 31 32 33 34 37 40 44 49 51 52 55 58 59 59 59 57 55 53 51 50 50
47 47 44 43 43 42 41 41 41 41 43 43 41 37 34 32 30 30 29 28 29 30 30 30 31 32 33 35 39 42 47 50 52 54 57 56 57 58 58 56 54 52 49 49
47 48 47 45 43 42 42 41 41 41 41 41 42 36 32 32 31 31 29 28 28 28 28 29 30 31 32 35 39 41 44 48 51 54 56 55 55 57 57 56 54 53 50 48
47 49 48 46 44 43 42 40 40 41 41 41 43 40 32 31 31 31 30 29 28 28 28 28 29 32 33 34 38 41 43 46 50 52 55 55 55 57 56 53 53 52 51 50
48 49 49 47 45 44 42 40 40 41 42 41 42 40 33 33 32 31 31 30 29 28 28 28 28 31 32 33 35 40 43 45 49 51 52 53 55 57 56 54 54 52 50 49
48 48 47 47 44 44 43 41 40 41 42 43 41 39 34 33 34 32 31 30 29 29 29 28 29 31 32 33 35 39 43 46 48 50 51 52 53 54 56 54 53 53 51 49
48 49 48 46 43 43 43 42 41 42 42 43 40 39 35 34 33 31 31 29 29 29 29 29 29 31 32 34 36 39 42 45 48 50 51 51 52 53 55 54 52 53 51 48
48 48 47 45 43 43 43 41 41 41 41 41 40 37 34 35 33 31 30 29 29 29 28 29 30 31 33 34 35 37 41 44 47 50 51 52 52 53 53 53 52 51 51 50
47 46 46 45 43 44 43 40 39 39 38 38 39 37 34 33 32 30 29 28 28 28 28 29 30 31 32 34 35 36 40 43 46 48 50 53 53 51 52 53 52 51 51 50
45 45 46 46 45 46 43 39 39 39 37 37 37 34 34 33 32 31 30 28 28 29 29 30 31 32 32 33 34 36 39 42 45 47 51 53 52 50 51 53 52 50 51 50
44 44 46 46 47 47 42 39 38 38 36 34 34 33 33 32 31 30 29 28 28 30 30 31 31 32 33 33 33 35 38 41 44 46 49 52 54 52 51 51 51 50 50 50
44 44 45 46 47 47 42 40 39 38 37 33 33 32 31 31 30 28 28 28 28 28 30 31 32 32 33 34 34 34 38 40 42 45 48 50 53 53 52 51 50 49 49 49
44 44 45 45 46 46 41 40 39 37 36 34 32 31 31 31 30 28 27 28 27 27 29 30 32 33 33 34 34 34 37 40 42 44 46 49 52 53 52 52 51 50 48 47
45 46 45 44 45 43 40 40 38 37 36 35 33 32 31 30 29 28 28 28 28 28 28 30 31 32 33 33 33 33 36 39 41 42 44 47 50 50 51 52 52 51 49 48
46 45 45 44 43 42 41 39 37 37 37 36 34 32 31 30 29 29 29 29 29 29 29 30 31 31 32 33 33 33 35 38 40 41 42 44 46 47 50 51 51 50 49 48
45 45 45 44 42 41 40 38 37 37 37 35 34 33 33 32 30 31 31 30 29 29 29 30 30 31 32 34 35 34 35 38 39 38 40 42 43 44 46 48 50 49 48 47
45 45 44 43 41 41 39 38 37 37 36 34 33 33 33 33 32 31 30 30 30 30 29 30 30 31 32 34 36 35 36 37 39 39 39 41 42 42 42 44 46 47 47 46
42 43 43 42 41 41 39 38 37 36 35 34 33 33 33 33 32 32 30 29 30 30 30 30 30 31 32 34 35 35 36 37 37 39 39 40 41 42 41 41 43 45 44 43
Wind_Direction
314 313 312 310 309 308 307 305 303 302 299 296 296 295 294 291 288 286 281 275 270 265 259 253 249 246 244 242 239 236 234 230 228 227 227 227 226 227 228 228 229 231 232 231
313 313 313 311 311 310 309 306 305 303 301 300 299 297 296 293 289 286 281 276 270 263 258 253 249 245 242 240 238 235 233 230 228 227 226 225 225 225 226 228 228 230 230 230
313 314 313 313 312 310 309 307 307 306 303 301 301 298 297 294 290 286 281 275 270 264 259 255 250 245 243 241 238 234 233 230 227 226 225 224 223 225 225 227 228 229 230 229
313 314 312 312 312 311 311 310 309 308 305 304 305 303 300 297 292 287 282 276 270 266 261 256 250 246 243 241 238 235 232 229 227 225 224 223 222 224 224 224 227 229 229 229
314 313 312 312 312 310 311 310 309 308 306 305 307 304 305 300 296 291 285 278 273 268 264 259 253 247 244 241 238 234 231 228 227 224 223 221 220 223 223 223 226 227 228 229
313 312 311 311 310 310 311 310 309 309 307 307 309 306 307 303 298 293 287 278 273 268 264 261 255 249 244 240 237 232 230 227 225 223 222 219 220 221 222 222 225 228 228 228
312 311 311 310 309 309 310 312 311 311 310 309 309 308 310 305 298 293 290 284 275 270 265 261 256 250 244 238 235 232 228 226 224 222 220 219 219 220 221 222 224 226 227 227
312 311 311 311 311 310 310 310 310 310 310 308 307 307 310 304 299 294 292 284 277 271 266 261 255 247 243 238 234 231 227 224 223 221 220 220 220 220 221 222 224 226 226 226
311 311 311 310 310 310 309 309 308 307 308 307 307 307 307 305 299 295 292 285 276 271 266 259 254 249 242 237 233 229 225 223 222 220 220 220 221 221 221 221 222 225 225 226
309 309 310 308 308 308 307 307 307 307 307 306 306 308 309 304 298 293 289 285 277 271 266 260 256 249 242 236 232 227 224 223 221 220 219 219 221 221 221 221 223 223 225 226
307 308 309 308 308 308 307 306 305 303 303 303 303 305 306 303 298 293 287 283 277 271 267 260 254 248 243 235 230 226 224 222 221 220 219 218 220 219 219 220 221 222 224 225
306 307 308 308 307 306 306 305 303 302 302 300 299 304 304 298 294 291 287 282 277 271 267 261 255 246 240 235 230 227 225 223 222 221 219 218 219 219 219 220 220 222 224 225
305 305 306 307 306 305 304 304 302 299 298 299 299 303 303 294 291 289 285 279 274 269 264 259 254 247 241 236 232 229 227 224 222 221 218 218 219 221 221 221 220 221 223 225
304 304 304 305 306 303 302 301 299 295 295 297 298 300 300 294 291 286 282 277 271 267 262 257 252 247 242 237 234 231 229 225 222 220 219 218 218 221 222 221 220 221 223 224
301 301 303 303 303 300 298 299 297 294 295 295 298 297 299 295 289 284 282 277 269 264 261 256 251 247 243 239 235 230 228 225 224 222 219 217 218 221 221 222 222 223 223 224
299 300 301 302 302 300 298 299 297 296 296 295 295 296 296 292 287 283 281 276 269 262 259 256 252 249 243 239 235 232 229 227 225 223 221 219 219 221 221 222 222 223 224 224
299 299 300 301 301 299 299 302 298 296 296 295 293 294 292 288 284 284 281 276 270 262 257 253 252 250 243 238 235 233 230 227 226 223 221 220 219 220 221 221 222 223 225 224
299 298 298 299 299 297 304 302 298 297 296 295 294 292 290 288 283 282 281 276 270 263 258 254 252 249 244 239 236 233 231 229 227 224 221 220 219 220 220 220 221 223 225 224
298 298 297 298 299 300 303 302 299 296 294 293 292 291 290 287 283 281 279 275 271 264 259 255 251 248 244 240 238 234 230 228 227 224 223 222 221 220 220 219 220 223 224 225
296 296 296 298 299 301 304 301 299 294 292 292 290 289 288 286 282 281 277 275 272 266 260 255 251 248 244 242 240 234 230 228 227 225 225 224 223 222 221 219 220 221 222 225
296 295 296 298 298 300 303 300 297 292 294 290 287 288 287 285 282 280 276 274 272 266 261 256 251 248 244 242 240 236 233 229 227 226 226 225 224 223 222 221 220 220 222 224
296 296 296 296 296 300 300 297 294 292 289 288 286 286 285 284 281 277 275 273 271 266 261 256 251 248 245 242 239 236 234 230 227 225 225 225 224 223 222 222 221 221 222 224
294 295 293 293 295 297 297 296 292 289 288 286 285 283 282 281 278 276 274 271 269 267 262 256 251 247 243 240 238 235 232 228 226 225 225 224 224 224 223 223 222 221 223 224
292 293 292 292 294 294 293 293 290 287 287 286 283 281 279 280 279 277 274 270 269 267 263 258 252 247 243 239 236 235 231 227 224 223 224 223 222 223 223 223 223 221 222 223
291 291 291 291 292 292 291 291 290 287 286 284 283 281 279 278 278 276 274 271 268 266 262 259 253 248 244 240 236 234 229 226 223 222 222 221 221 221 220 220 222 222 221 220
289 289 289 289 289 290 291 290 289 287 286 284 282 281 280 278 276 275 274 272 269 265 260 258 255 250 245 241 236 230 226 224 222 221 221 220 219 218 218 218 219 220 219 218
Height
5664 5661 5655 5650 5645 5640 5635 5631 5627 5625 5620 5615 5611 5609 5609 5606 5602 5599 5598 5597 5597 5598 5600 5603 5607 5611 5616 5622 5627 5634 5641 5648 5657 5665 5674 5683 5693 5701 5709 5717 5724 5730 5735 5741
5656 5652 5647 5641 5637 5632 5626 5621 5617 5615 5609 5604 5600 5599 5597 5594 5591 5588 5586 5585 5585 5586 5588 5591 5594 5599 5603 5609 5615 5621 5628 5635 5643 5652 5661 5671 5681 5690 5697 5705 5713 5719 5725 5732
5648 5645 5638 5633 5629 5623 5618 5612 5607 5602 5599 5595 5589 5588 5587 5584 5579 5577 5575 5574 5574 5575 5577 5580 5583 5587 5591 5597 5603 5609 5615 5623 5631 5639 5648 5658 5668 5677 5685 5694 5702 5709 5716 5723
5640 5636 5630 5625 5620 5613 5609 5604 5598 5593 5588 5585 5580 5572 5579 5574 5570 5567 5566 5564 5564 5565 5566 5568 5571 5575 5579 5585 5590 5596 5602 5610 5618 5627 5636 5645 5656 5666 5676 5685 5692 5698 5705 5713
5632 5626 5621 5617 5612 5605 5600 5595 5590 5585 5579 5576 5573 5563 5567 5565 5561 5559 5557 5556 5555 5556 5556 5558 5561 5564 5568 5573 5578 5584 5590 5598 5606 5615 5624 5634 5644 5654 5664 5672 5680 5688 5695 5703
5624 5618 5613 5609 5603 5597 5591 5586 5582 5577 5571 5568 5566 5558 5556 5555 5553 5550 5549 5548 5547 5547 5547 5548 5550 5554 5558 5562 5567 5572 5580 5588 5596 5604 5613 5623 5633 5643 5652 5661 5670 5678 5685 5693
5615 5611 5604 5600 5595 5590 5584 5578 5572 5566 5562 5560 5557 5551 5550 5547 5544 5542 5541 5540 5538 5538 5538 5539 5541 5544 5548 5552 5557 5562 5569 5578 5586 5594 5603 5613 5623 5632 5641 5652 5660 5668 5675 5683
5604 5601 5596 5590 5586 5581 5576 5570 5565 5558 5553 5550 5549 5546 5545 5540 5536 5534 5532 5531 5530 5530 5530 5530 5532 5534 5538 5542 5548 5553 5560 5568 5576 5585 5594 5603 5613 5622 5632 5642 5651 5659 5667 5674
5594 5592 5588 5582 5577 5573 5567 5562 5557 5550 5544 5540 5539 5538 5537 5532 5528 5526 5524 5522 5522 5522 5522 5522 5523 5526 5529 5533 5538 5544 5551 5559 5567 5576 5584 5593 5603 5613 5623 5632 5641 5650 5658 5665
5585 5582 5580 5575 5569 5564 5560 5555 5549 5543 5536 5531 5530 5530 5528 5524 5521 5519 5517 5516 5514 5514 5514 5515 5516 5518 5521 5525 5529 5535 5542 5550 5558 5567 5575 5585 5594 5604 5613 5622 5631 5640 5648 5656
5576 5572 5570 5566 5561 5557 5552 5548 5541 5535 5530 5524 5519 5524 5521 5517 5513 5511 5510 5508 5508 5507 5506 5507 5509 5511 5514 5517 5522 5527 5534 5542 5549 5557 5566 5576 5585 5595 5604 5613 5622 5631 5640 5647
5566 5561 5558 5557 5552 5547 5543 5539 5533 5528 5523 5517 5511 5514 5514 5509 5505 5503 5502 5501 5500 5499 5499 5500 5501 5503 5507 5510 5515 5520 5526 5533 5540 5548 5557 5567 5576 5585 5594 5604 5613 5622 5631 5639
5558 5552 5547 5545 5544 5538 5533 5530 5524 5519 5514 5510 5504 5505 5505 5501 5496 5494 5493 5492 5492 5492 5492 5493 5494 5496 5499 5503 5508 5513 5518 5525 5532 5540 5549 5558 5568 5577 5586 5595 5604 5613 5622 5630
5546 5543 5540 5537 5533 5526 5523 5521 5516 5510 5505 5501 5498 5495 5496 5492 5488 5486 5485 5484 5484 5484 5485 5486 5487 5489 5492 5496 5500 5505 5510 5517 5524 5532 5541 5549 5559 5568 5577 5586 5595 5604 5613 5622
5536 5532 5529 5526 5523 5518 5514 5512 5507 5501 5497 5492 5490 5487 5486 5483 5479 5477 5476 5475 5475 5476 5477 5478 5480 5482 5485 5488 5493 5497 5503 5509 5516 5523 5532 5540 5549 5559 5568 5577 5586 5595 5604 5613
5526 5522 5518 5516 5513 5507 5503 5502 5497 5492 5488 5483 5480 5478 5478 5473 5471 5469 5468 5467 5467 5468 5469 5470 5473 5475 5478 5481 5485 5490 5495 5501 5507 5515 5523 5532 5541 5549 5559 5569 5577 5586 5595 5604
5517 5512 5507 5504 5502 5495 5493 5494 5488 5483 5479 5475 5471 5470 5468 5465 5463 5461 5460 5459 5459 5460 5461 5463 5465 5467 5470 5473 5477 5482 5487 5493 5499 5506 5514 5523 5532 5541 5550 5559 5569 5578 5586 5595
5507 5502 5496 5492 5490 5484 5488 5483 5477 5472 5470 5466 5462 5460 5458 5456 5454 5453 5452 5451 5451 5451 5453 5455 5456 5459 5462 5465 5469 5474 5479 5484 5490 5497 5506 5514 5523 5532 5541 5550 5560 5569 5577 5585
5498 5493 5486 5481 5476 5472 5476 5473 5466 5461 5460 5458 5454 5451 5449 5447 5446 5445 5444 5443 5443 5443 5444 5446 5448 5450 5453 5457 5461 5465 5470 5476 5482 5489 5496 5505 5514 5523 5532 5541 5551 5560 5568 5576
5488 5483 5478 5472 5465 5462 5466 5461 5455 5452 5450 5450 5445 5443 5441 5439 5437 5438 5436 5435 5434 5435 5436 5438 5440 5442 5445 5449 5452 5457 5462 5468 5474 5480 5487 5495 5504 5514 5523 5532 5542 5550 5559 5567
5476 5472 5468 5462 5455 5452 5455 5450 5446 5443 5442 5439 5436 5434 5432 5430 5429 5429 5428 5427 5426 5427 5428 5429 5431 5434 5437 5440 5444 5448 5454 5459 5465 5472 5479 5487 5495 5505 5514 5523 5532 5541 5550 5558
5464 5460 5457 5452 5446 5447 5444 5439 5437 5435 5431 5428 5426 5425 5423 5422 5421 5420 5419 5419 5418 5418 5419 5421 5423 5425 5428 5431 5436 5440 5445 5451 5457 5463 5470 5478 5486 5495 5504 5513 5522 5532 5541 5550
5453 5451 5446 5443 5441 5437 5432 5429 5426 5424 5421 5419 5417 5416 5414 5413 5412 5412 5411 5410 5410 5410 5411 5412 5414 5417 5420 5423 5427 5432 5437 5442 5448 5455 5462 5470 5478 5486 5495 5504 5513 5522 5532 5541
5441 5438 5434 5430 5430 5427 5423 5419 5416 5413 5411 5409 5408 5407 5405 5404 5404 5403 5402 5402 5401 5401 5402 5403 5405 5407 5411 5414 5418 5423 5428 5434 5440 5447 5454 5462 5470 5478 5487 5495 5504 5513 5523 5532
5431 5426 5422 5419 5418 5415 5413 5409 5406 5403 5401 5400 5398 5397 5396 5395 5394 5393 5392 5392 5392 5392 5393 5394 5395 5398 5401 5405 5409 5414 5419 5425 5432 5439 5446 5453 5462 5470 5479 5487 5496 5505 5515 5523
5420 5415 5411 5409 5407 5403 5402 5399 5396 5393 5392 5390 5388 5387 5386 5385 5384 5383 5383 5383 5383 5383 5383 5385 5386 5388 5391 5395 5399 5404 5410 5417 5424 5431 5438 5445 5453 5462 5470 5479 5487 5496 5506 5514